Weather History for Osceola Municipal, IA

Change the Weather History Date:

Wednesday, April 10, 2013

  Actual Average (KLWD) Record (KLWD)
Temperature  
Mean Temperature 40 °F 50 °F  
Max Temperature 43 °F 61 °F 85 °F (2011)
Min Temperature 38 °F 40 °F 20 °F (1989)
Degree Days  
Heating Degree Days 24 15  
Month to date heating degree days 165  
Since 1 July heating degree days 5654  
Cooling Degree Days 0 0  
Month to date cooling degree days 0  
Year to date cooling degree days 1  
Moisture  
Dew Point 39 °F    
Average Humidity 94    
Maximum Humidity 95    
Minimum Humidity 91    
Precipitation  
Precipitation 0.87 in 0.11 in 1.36 in (2008)
Month to date precipitation 0.86  
Sea Level Pressure  
Sea Level Pressure 29.81 in    
Wind  
Wind Speed 12 mph (NNE)    
Max Wind Speed 21 mph    
Max Gust Speed 29 mph    
Visibility 8 miles    
Events Rain    
T = Trace of Precipitation, MM = Missing Value Source: NWS Daily Summary

Daily Weather History Graph

Daily Weather History Graph

Search for Another Location

Airport:

Trip Planner

Search our weather history database for the weather conditions in past years. The results will help you decide how hot, cold, wet, or windy it might be!

Date:

Astronomy

Apr. 10, 2013 Rise Set
Actual Time 6:42 AM CDT 7:49 PM CDT
Civil Twilight 6:14 AM CDT 8:17 PM CDT
Nautical Twilight 5:41 AM CDT 8:51 PM CDT
Astronomical Twilight 5:05 AM CDT 9:27 PM CDT
Moon 6:39 AM CDT (4/10) 8:26 PM CDT (4/10)
Length of Visible Light 14h 03m
Length of Day
13h 06m
New Moon, 0% of the Moon is Illuminated
Apr 10
New Moon
Apr 18
First Quarter
Apr 25
Full
May 2
Last Quarter
May 9
New

Hourly Weather History & Observations

Time (CDT) Temp. Windchill Dew Point Humidity Pressure Visibility Wind Dir Wind Speed Gust Speed Precip Events Conditions
12:15 AM 43.2 °F 34.7 °F 41.9 °F 95% 29.83 in 4.0 mi NNW 19.6 mph 25.3 mph N/A   Overcast
12:35 AM 42.8 °F 35.4 °F 41.4 °F 95% 29.86 in 5.0 mi NNW 15.0 mph 27.6 mph N/A   Light Drizzle
12:55 AM 42.1 °F 33.1 °F 40.6 °F 95% 29.85 in 4.0 mi North 20.7 mph 26.5 mph 0.08 in Rain Rain
1:15 AM 41.9 °F 32.8 °F 40.1 °F 93% 29.84 in 10.0 mi North 20.7 mph 27.6 mph N/A   Overcast
1:35 AM 41.5 °F 33.2 °F 39.6 °F 93% 29.83 in 10.0 mi NNE 17.3 mph 25.3 mph N/A   Overcast
1:55 AM 41.5 °F 33.8 °F 39.6 °F 93% 29.82 in 10.0 mi NNE 15.0 mph 28.8 mph N/A   Overcast
2:15 AM 41.4 °F 32.4 °F 39.4 °F 93% 29.81 in 10.0 mi NNE 19.6 mph 28.8 mph 0.01 in Rain Light Rain
2:35 AM 41.5 °F 35.0 °F 39.2 °F 91% 29.96 in 2.0 mi WNW 11.5 mph 24.2 mph 0.16 in Rain Heavy Rain
2:55 AM 40.8 °F 36.9 °F 39.2 °F 94% 29.92 in 4.0 mi North 5.8 mph - 0.34 in Rain Heavy Rain
3:15 AM 40.6 °F 35.4 °F 39.2 °F 95% 29.89 in 7.0 mi NNE 8.1 mph - 0.04 in Rain Rain
3:35 AM 40.6 °F 32.3 °F 39.2 °F 95% 29.83 in 5.0 mi NNE 16.1 mph - 0.11 in Rain Rain
3:55 AM 40.5 °F 31.8 °F 39.2 °F 95% 29.79 in 10.0 mi NNE 17.3 mph - 0.13 in Rain Light Rain
4:15 AM 40.6 °F 32.0 °F 39.2 °F 95% 29.76 in 10.0 mi NE 17.3 mph 21.9 mph N/A Rain Light Rain
4:35 AM 40.8 °F 32.0 °F 39.2 °F 94% 29.72 in 10.0 mi NE 18.4 mph - N/A   Mostly Cloudy
4:55 AM 41.0 °F 32.5 °F 39.2 °F 93% 29.71 in 10.0 mi NE 17.3 mph 21.9 mph N/A   Scattered Clouds
5:15 AM 41.2 °F 35.5 °F 39.6 °F 94% 29.74 in 10.0 mi NNE 9.2 mph - N/A   Mostly Cloudy
5:35 AM 41.4 °F 35.7 °F 39.7 °F 94% 29.76 in 10.0 mi ENE 9.2 mph 18.4 mph N/A   Overcast
5:55 AM 41.5 °F 36.4 °F 39.9 °F 94% 29.77 in 10.0 mi East 8.1 mph - N/A   Overcast
6:15 AM 42.1 °F 36.6 °F 40.5 °F 94% 29.85 in 10.0 mi South 9.2 mph - N/A Rain Light Rain
6:35 AM 42.4 °F 36.5 °F 41.0 °F 95% 29.92 in 5.0 mi SW 10.4 mph 17.3 mph 0.04 in Rain Rain
6:55 AM 42.4 °F 36.5 °F 41.0 °F 95% 29.86 in 2.5 mi East 10.4 mph - 0.18 in Rain Light Rain
7:15 AM 42.1 °F 36.6 °F 40.6 °F 95% 29.84 in 7.0 mi North 9.2 mph - 0.04 in Rain Rain
7:35 AM 41.9 °F 34.3 °F 40.5 °F 95% 29.77 in 10.0 mi NNE 15.0 mph - 0.04 in Rain Light Rain
7:55 AM 41.5 °F 37.1 °F 40.3 °F 95% 29.81 in 10.0 mi NNE 6.9 mph - 0.05 in   Overcast
8:15 AM 41.5 °F 38.6 °F 40.3 °F 95% 29.87 in 10.0 mi SSW 4.6 mph - N/A   Overcast
8:35 AM 42.3 °F 38.6 °F 40.6 °F 94% 29.85 in 10.0 mi West 5.8 mph - N/A   Overcast
8:55 AM 42.6 °F 39.9 °F 40.5 °F 92% 29.88 in 10.0 mi WSW 4.6 mph - N/A   Overcast
9:15 AM 42.8 °F - 40.3 °F 91% 29.87 in 10.0 mi Calm Calm - N/A Rain Light Rain
9:35 AM 42.8 °F 39.3 °F 41.0 °F 93% 29.86 in 5.0 mi NNW 5.8 mph - N/A Rain Light Rain
9:55 AM 43.0 °F 38.8 °F 41.2 °F 93% 29.87 in 10.0 mi NNW 6.9 mph - N/A   Overcast
10:15 AM 42.8 °F 37.5 °F 41.0 °F 93% 29.87 in 10.0 mi NNW 9.2 mph - N/A   Overcast
10:35 AM 43.0 °F 38.2 °F 41.0 °F 93% 29.88 in 7.0 mi North 8.1 mph - N/A   Overcast
10:55 AM 42.3 °F 36.8 °F 40.6 °F 94% 29.89 in 7.0 mi North 9.2 mph - N/A   Overcast
11:15 AM 42.1 °F 37.1 °F 40.1 °F 93% 29.89 in 10.0 mi NE 8.1 mph - N/A   Overcast
11:35 AM 41.7 °F 36.1 °F 39.9 °F 93% 29.89 in 7.0 mi NE 9.2 mph - N/A Rain Rain
12:15 PM 41.7 °F 36.7 °F 40.1 °F 94% 29.89 in 10.0 mi ENE 8.1 mph - N/A Rain Rain
12:35 PM 41.4 °F 36.8 °F 39.6 °F 93% 29.90 in 5.0 mi NE 6.9 mph - 0.04 in Rain Rain
12:55 PM 41.4 °F 36.8 °F 39.7 °F 94% 29.89 in 5.0 mi NE 6.9 mph - 0.09 in Rain Light Rain
1:15 PM 41.7 °F 36.7 °F 39.9 °F 93% 29.87 in 10.0 mi NE 8.1 mph - N/A   Drizzle
1:35 PM 41.9 °F 35.9 °F 40.1 °F 93% 29.85 in 10.0 mi NE 10.4 mph - N/A   Light Drizzle
1:55 PM 42.4 °F 36.5 °F 40.5 °F 93% 29.85 in 10.0 mi ENE 10.4 mph - N/A Rain Light Rain
2:15 PM 42.6 °F 36.3 °F 40.8 °F 93% 29.82 in 10.0 mi ENE 11.5 mph - N/A Rain Light Rain
2:35 PM 43.0 °F 36.8 °F 41.2 °F 93% 29.79 in 10.0 mi NE 11.5 mph - N/A   Overcast
2:55 PM 43.2 °F 37.9 °F 41.2 °F 93% 29.81 in 10.0 mi NNE 9.2 mph - N/A   Overcast
3:15 PM 42.8 °F 37.0 °F 41.0 °F 93% 29.82 in 10.0 mi North 10.4 mph - N/A   Overcast
3:35 PM 42.1 °F 36.6 °F 40.1 °F 93% 29.84 in 10.0 mi NNW 9.2 mph - N/A   Overcast
3:55 PM 41.7 °F 36.1 °F 40.1 °F 94% 29.85 in 1.5 mi NNW 9.2 mph - N/A   Overcast
4:15 PM 41.4 °F 34.7 °F 40.1 °F 95% 29.81 in 2.0 mi North 11.5 mph 16.1 mph N/A   Overcast
4:35 PM 41.2 °F 35.0 °F 39.7 °F 95% 29.83 in 4.0 mi North 10.4 mph - N/A   Overcast
4:55 PM 41.0 °F 34.7 °F 39.6 °F 95% 29.82 in 5.0 mi North 10.4 mph - N/A   Overcast
5:15 PM 40.6 °F 33.8 °F 39.2 °F 95% 29.79 in 7.0 mi North 11.5 mph - N/A   Overcast
5:35 PM 40.6 °F 33.4 °F 39.0 °F 94% 29.76 in 10.0 mi NNE 12.7 mph 19.6 mph N/A   Overcast
5:55 PM 40.5 °F 32.1 °F 38.5 °F 93% 29.75 in 10.0 mi NNE 16.1 mph - N/A   Overcast
6:15 PM 40.1 °F 32.0 °F 38.3 °F 93% 29.72 in 10.0 mi NNE 15.0 mph - N/A   Overcast
6:35 PM 40.1 °F 33.2 °F 38.3 °F 93% 29.75 in 10.0 mi North 11.5 mph 17.3 mph N/A   Overcast
6:55 PM 39.7 °F 32.3 °F 37.8 °F 93% 29.74 in 10.0 mi NNE 12.7 mph - N/A   Overcast
7:15 PM 39.6 °F 32.1 °F 37.4 °F 92% 29.75 in 10.0 mi NNE 12.7 mph - N/A   Light Drizzle
7:35 PM 39.2 °F 29.6 °F 37.2 °F 93% 29.71 in 10.0 mi NE 19.6 mph - N/A   Overcast
7:55 PM 39.0 °F 30.3 °F 36.9 °F 92% 29.73 in 10.0 mi NE 16.1 mph 23.0 mph N/A   Overcast
8:15 PM 38.8 °F 33.8 °F 36.9 °F 93% 29.76 in 10.0 mi NNE 6.9 mph 13.8 mph N/A   Overcast
8:35 PM 38.8 °F 33.8 °F 36.5 °F 91% 29.77 in 10.0 mi NE 6.9 mph - N/A   Overcast
8:55 PM 39.2 °F 33.6 °F 36.7 °F 91% 29.77 in 7.0 mi NE 8.1 mph - N/A   Overcast
9:15 PM 38.8 °F 35.4 °F 37.2 °F 94% 29.76 in 5.0 mi NNE 4.6 mph - N/A   Overcast
9:55 PM 39.2 °F 35.9 °F 37.6 °F 94% 29.75 in 4.0 mi NNE 4.6 mph - N/A   Overcast
10:15 PM 39.0 °F 34.8 °F 37.6 °F 95% 29.74 in 3.0 mi North 5.8 mph - N/A   Drizzle
10:35 PM 39.2 °F 35.0 °F 37.8 °F 95% 29.74 in 3.0 mi NE 5.8 mph - N/A   Overcast
10:55 PM 39.2 °F - 37.8 °F 95% 29.74 in 3.0 mi Calm Calm - N/A   Drizzle
11:15 PM 39.2 °F - 37.9 °F 95% 29.74 in 2.5 mi Calm Calm - N/A Rain Light Rain
11:35 PM 39.2 °F - 37.8 °F 95% 29.72 in 2.0 mi Calm Calm - N/A   Drizzle
11:55 PM 39.2 °F - 37.9 °F 95% 29.72 in 3.0 mi Calm Calm - N/A   Overcast